Temp
17 19 19 20 20 20 21 21 22 23 25 25 24 24 25 25 23 21 25 31 30 27 24 24 25 26 25 27 27 28 30 30 30 30 30 30 29 29 29 28 28 28 27 27 23
16 17 19 20 20 20 20 21 21 23 25 26 25 23 25 25 21 22 31 31 31 28 25 26 27 26 27 28 28 29 31 31 32 32 31 30 30 29 28 28 27 26 25 24 22
16 17 18 19 20 21 21 21 22 23 25 26 25 25 24 24 26 33 31 31 29 27 25 27 27 28 29 29 29 29 31 31 32 32 32 31 30 30 28 28 28 27 25 25 24
16 16 17 18 19 21 21 21 22 24 25 26 26 25 25 22 33 30 30 30 28 26 27 28 28 29 30 30 29 29 31 32 32 32 31 30 31 30 30 31 31 28 26 25 26
15 17 17 18 19 20 22 22 24 24 25 25 26 25 23 28 31 30 30 29 27 27 29 29 29 31 32 31 30 30 32 32 33 32 32 31 31 31 30 30 30 28 26 26 27
15 16 17 19 19 21 21 23 24 25 25 25 25 24 24 29 30 29 27 24 26 28 29 30 32 31 32 32 32 33 33 33 33 32 32 31 31 31 31 29 27 27 26 27 27
15 16 17 19 20 21 22 23 24 25 25 25 24 22 25 31 29 28 24 25 25 27 30 30 31 32 33 34 34 34 33 33 32 32 32 32 30 30 30 29 27 27 27 27 27
15 16 17 19 20 21 23 22 24 27 26 24 23 21 29 27 28 27 24 24 25 27 29 30 30 32 32 33 33 34 33 32 32 32 31 32 32 32 29 29 28 27 27 26 27
15 16 17 19 20 22 22 22 24 26 25 22 21 24 29 26 25 26 25 28 26 26 27 30 31 32 32 33 33 32 32 32 32 32 32 32 32 32 30 30 29 28 27 27 27
14 16 18 19 20 22 22 21 22 22 21 22 21 26 27 30 28 25 26 27 29 29 29 30 32 32 32 34 32 32 32 32 32 32 32 32 32 30 29 30 29 29 28 28 28
14 16 18 20 20 21 21 21 25 25 22 28 29 28 29 29 29 27 27 29 31 31 32 31 32 33 35 34 34 33 33 33 32 31 32 32 33 32 29 29 29 30 29 29 29
15 16 18 20 21 21 20 25 24 24 27 25 25 26 26 29 31 30 29 32 32 33 31 31 32 34 33 33 34 33 33 34 31 30 31 31 32 32 30 29 30 30 29 29 29
15 17 18 21 21 20 20 23 22 22 26 28 26 27 29 30 31 31 31 32 32 31 32 33 33 32 33 32 33 33 34 34 33 30 29 30 31 30 29 29 30 30 30 30 30
15 16 13 20 18 19 21 22 22 22 28 30 28 29 28 30 31 31 32 34 31 33 31 33 33 33 33 33 34 34 33 33 31 32 32 30 33 31 29 28 29 30 30 31 30
14 12 10 12 15 18 22 23 22 23 31 30 29 29 28 32 32 31 30 33 33 31 32 33 32 33 33 34 33 34 32 32 31 31 31 30 31 33 29 29 30 30 31 31 31
14 12 9 13 13 21 22 23 23 29 30 31 30 30 30 31 32 31 33 32 31 31 31 33 31 33 35 33 33 31 31 31 30 30 32 32 33 35 31 31 33 32 31 32 32
16 16 14 15 20 21 22 24 28 29 30 30 30 31 31 32 32 32 32 32 33 32 32 31 32 32 33 33 31 32 34 33 33 32 33 29 31 35 34 33 34 34 33 32 32
17 18 18 19 20 20 22 28 27 28 29 29 29 29 30 31 32 32 32 33 30 32 31 32 31 33 32 34 33 33 34 33 32 33 33 28 32 36 34 34 34 34 35 34 32
19 19 19 19 21 21 26 28 28 27 28 28 29 30 30 31 31 31 32 33 33 32 32 31 31 31 32 34 34 31 32 34 32 28 31 33 33 34 37 36 33 34 33 33 32
18 18 20 20 21 21 27 25 26 26 27 28 29 29 30 31 32 32 30 30 31 30 32 33 32 32 32 32 31 33 33 32 31 31 31 33 32 35 36 37 37 35 33 34 33
17 24 21 21 21 25 26 25 25 26 26 27 28 29 29 30 30 31 30 29 29 30 29 31 33 32 31 32 34 31 32 31 33 32 34 33 35 37 36 38 38 36 35 34 34
17 25 21 21 25 19 24 21 20 25 25 26 27 27 28 27 29 30 30 30 28 29 30 30 32 32 33 31 32 35 35 35 34 33 31 32 34 39 38 38 36 36 35 34 35
18 18 21 20 25 23 21 23 23 24 24 24 26 25 25 26 28 28 28 29 28 29 30 30 31 32 33 32 31 33 33 35 34 32 33 34 35 35 36 35 36 35 35 33 32
17 23 21 18 15 20 21 21 23 23 23 22 23 25 25 25 25 26 27 28 27 28 24 28 30 32 33 33 33 33 32 32 35 34 35 33 36 38 38 37 38 35 33 33 31
14 15 13 19 19 18 18 19 21 21 21 22 23 22 23 25 25 25 25 26 27 25 27 28 31 29 30 30 30 32 33 31 32 35 33 37 33 37 38 37 37 35 34 32 31
15 15 13 14 14 18 16 17 18 19 19 21 20 21 23 23 21 22 22 24 25 26 27 27 29 27 30 30 30 30 32 33 33 33 32 33 34 37 36 33 32 34 34 33 31
9 9 12 11 15 17 16 16 17 18 19 19 19 20 21 20 18 20 21 22 23 23 25 26 28 29 31 29 30 32 33 33 34 35 35 34 37 36 37 34 35 34 33 34 33
Height
784 781 777 775 772 769 765 762 760 757 755 754 753 751 751 750 749 750 748 740 742 747 753 758 763 765 767 766 765 764 776 783 781 783 783 774 782 780 780 786 787 789 792 796 806
784 780 777 773 770 767 763 760 758 755 753 752 751 749 749 748 747 745 738 737 739 744 751 756 760 765 766 765 766 768 774 774 762 765 774 774 778 781 787 789 792 795 796 800 806
783 779 776 772 768 765 761 758 755 752 750 749 748 748 747 746 746 731 732 735 739 745 752 757 760 760 764 762 764 767 773 764 761 760 763 773 778 776 785 793 785 791 795 800 804
782 778 774 771 767 762 758 754 751 748 747 747 746 746 746 747 755 730 731 735 740 747 753 757 760 763 764 766 760 772 760 758 757 759 766 774 771 777 778 777 775 785 790 797 800
779 775 771 768 764 759 755 751 746 743 743 744 744 744 745 746 737 731 732 736 743 748 749 751 757 757 762 759 761 766 757 754 752 758 761 766 773 775 778 774 777 785 792 795 798
777 773 768 764 760 755 750 745 741 738 739 740 742 743 745 750 733 731 732 737 741 745 749 750 750 750 755 757 760 753 754 756 757 761 763 771 774 774 774 777 782 787 792 793 795
775 770 766 761 755 750 745 739 735 735 735 738 740 742 743 736 732 732 735 739 743 747 749 751 751 752 751 755 746 751 764 761 765 765 770 768 784 779 773 776 783 788 790 794 796
773 768 763 758 752 746 741 735 731 732 734 737 740 742 738 732 732 733 737 742 745 749 751 751 752 752 753 748 753 762 765 783 769 766 768 769 786 768 770 775 781 784 788 792 794
770 764 760 755 749 744 739 735 732 732 734 737 741 741 738 733 733 732 736 739 746 750 751 752 751 754 753 761 770 771 789 783 779 765 766 770 776 766 767 770 777 780 784 786 792
767 761 756 751 746 742 739 738 736 737 738 739 741 745 736 731 728 731 735 739 743 749 754 755 756 760 761 763 791 784 783 779 780 770 768 771 771 769 769 770 773 775 780 784 784
764 757 752 748 744 739 739 739 740 741 739 731 729 731 728 728 729 732 734 738 740 746 758 756 764 769 755 756 758 764 773 775 770 767 771 768 765 765 768 771 773 773 776 777 777
761 754 748 743 740 737 737 736 736 740 739 728 730 729 729 728 732 731 735 739 743 754 753 762 767 751 751 754 757 763 771 771 770 771 772 772 765 757 762 763 762 766 769 770 775
757 751 744 739 736 736 736 736 736 737 740 729 726 726 725 727 730 730 730 734 742 756 755 758 755 751 754 762 765 765 769 769 774 774 773 777 770 763 761 758 760 761 761 765 768
753 747 741 735 738 735 734 734 734 735 743 733 728 721 722 721 729 721 724 727 743 750 755 754 747 753 756 761 758 770 757 762 772 777 787 775 786 764 761 763 759 756 756 755 760
749 742 738 736 735 734 733 733 732 735 759 727 726 718 720 722 719 724 721 724 741 749 752 756 754 755 758 754 753 763 757 764 772 776 781 782 788 758 762 763 755 749 746 747 747
743 736 732 732 732 731 730 730 733 747 761 730 723 726 728 723 722 721 722 723 730 745 749 746 742 743 740 747 747 756 764 770 775 780 789 773 775 752 760 746 736 734 736 737 740
735 729 726 729 730 729 728 730 748 755 728 737 732 726 726 728 728 725 731 737 743 762 763 758 751 742 738 754 757 758 764 789 792 794 788 782 782 745 732 729 724 722 721 724 730
732 728 728 728 728 728 728 734 761 743 739 728 729 732 734 728 728 729 732 740 741 743 757 765 775 748 740 744 757 758 758 778 806 794 781 786 776 741 719 715 713 712 709 712 721
730 730 730 729 727 729 729 748 745 745 736 735 729 734 735 728 727 730 730 733 728 735 756 766 764 739 738 732 740 764 773 751 774 793 788 766 753 726 707 710 714 710 711 712 713
732 731 733 731 730 730 734 752 745 740 735 734 741 732 738 732 730 730 739 734 734 731 729 739 763 740 738 735 744 744 741 771 774 796 798 771 770 750 723 711 707 709 708 705 707
733 731 734 730 731 731 743 749 745 736 736 738 738 737 735 734 730 732 739 735 731 732 732 736 741 747 744 743 743 754 756 762 756 764 773 777 755 713 714 703 700 702 698 698 700
738 737 735 732 736 755 749 754 751 741 737 737 733 736 738 738 735 733 735 730 727 726 736 733 736 750 737 733 726 722 732 735 757 767 769 765 751 697 697 694 697 696 694 693 693
746 747 737 733 746 752 754 750 749 745 746 744 742 742 740 743 744 738 737 728 728 729 731 733 742 751 745 740 736 734 732 726 734 746 753 759 743 700 694 697 688 692 690 694 694
751 745 746 749 765 758 760 760 754 749 751 751 749 742 743 747 745 746 742 733 732 731 735 729 736 734 739 732 724 734 731 729 726 742 737 742 725 697 689 689 683 685 686 688 695
762 771 776 764 763 766 767 767 762 761 756 754 751 756 757 753 750 754 749 742 733 737 734 732 733 737 729 730 731 724 721 731 732 721 737 714 723 697 682 682 677 681 683 688 691
769 772 777 776 776 768 773 775 772 770 768 763 766 762 757 759 769 767 764 753 750 739 737 735 738 740 731 727 727 729 716 715 719 718 723 719 710 680 675 679 681 676 678 683 685
782 783 780 785 776 771 776 778 777 774 769 770 772 767 763 768 770 764 762 757 754 759 751 745 741 741 736 730 724 728 708 706 703 696 698 715 688 675 672 676 671 670 670 671 674
Wind_Speed
26 24 22 21 21 22 22 20 20 19 13 10 10 10 8 7 4 3 7 9 14 25 24 22 9 11 7 3 3 1 1 3 3 5 6 13 6 5 5 11 5 3 6 17 23
27 25 23 22 21 22 22 21 22 21 14 10 10 10 8 8 3 11 8 10 16 31 27 23 15 16 3 2 2 2 1 2 4 6 8 14 9 9 6 12 7 8 15 26 26
28 26 24 23 23 22 23 22 24 21 14 10 9 8 6 5 3 3 6 15 25 33 24 15 20 10 4 3 4 2 2 2 5 7 13 13 9 6 12 8 10 14 20 22 23
29 27 25 25 24 23 23 24 25 20 13 8 7 5 4 0 5 3 3 21 32 25 23 13 11 4 4 3 4 2 7 5 7 9 12 14 10 8 13 2 13 18 22 22 20
30 29 27 27 27 26 24 27 24 18 12 7 5 3 2 2 6 6 10 26 34 24 20 12 14 4 3 2 5 4 2 7 10 13 13 13 13 6 12 2 16 19 21 21 19
32 30 29 29 28 27 27 29 21 14 10 6 6 4 2 4 4 2 21 30 28 22 18 11 5 6 3 2 4 5 4 5 6 9 10 12 7 3 7 12 17 19 20 20 20
33 32 31 30 30 28 31 25 16 10 8 7 8 4 2 7 1 6 21 21 20 16 10 10 1 1 5 6 3 6 6 7 6 8 4 8 4 11 10 15 17 17 17 18 18
35 33 33 31 29 30 26 18 11 5 6 10 9 4 5 2 5 9 16 15 10 12 1 3 8 5 3 4 1 4 3 4 3 5 3 10 6 13 15 17 17 18 17 17 19
35 34 34 31 29 29 15 10 10 7 8 12 5 2 4 3 4 10 14 10 14 11 6 6 2 3 2 5 5 2 4 7 3 4 5 13 5 7 15 16 17 17 18 18 17
37 35 35 31 29 27 3 8 12 10 9 5 2 2 4 3 5 12 15 10 5 8 3 4 2 3 3 6 10 10 5 5 7 5 8 10 14 6 13 16 17 17 17 17 19
38 36 35 30 30 16 3 2 2 2 1 5 2 1 0 2 5 8 12 8 7 5 6 7 6 9 10 4 3 5 5 7 3 4 5 10 13 9 13 14 15 17 18 19 21
39 37 34 29 27 1 3 2 4 2 5 6 10 8 4 2 2 6 16 8 5 7 6 5 10 9 4 6 2 2 4 8 2 4 4 5 14 8 16 20 20 20 20 21 17
39 37 33 29 12 4 3 4 2 1 2 2 4 4 4 9 5 9 18 8 9 7 9 13 2 10 7 8 6 4 7 8 6 3 1 4 9 7 10 13 15 18 20 18 20
40 38 33 28 2 7 2 6 10 9 2 3 2 2 5 6 4 6 15 9 3 13 9 9 4 4 7 10 7 9 4 9 4 3 4 2 7 3 9 16 17 20 21 22 22
43 36 30 16 9 2 3 6 2 4 1 3 3 4 4 6 5 5 5 3 10 8 6 8 6 11 11 10 7 3 3 4 4 3 4 4 4 1 6 12 20 21 23 24 25
42 34 23 4 5 2 5 4 4 2 2 3 4 3 8 3 2 4 4 4 4 6 2 8 2 5 15 4 7 12 7 5 3 0 5 2 5 3 6 9 12 19 23 24 24
39 16 5 7 1 2 6 2 2 3 2 2 3 2 5 8 5 6 10 9 8 7 9 1 4 1 2 9 8 5 8 2 3 3 3 2 4 10 9 9 11 13 21 24 23
24 8 7 3 5 5 0 2 4 1 1 2 2 1 6 8 5 4 10 11 2 4 4 9 7 9 7 12 7 11 8 5 5 4 3 2 6 4 1 3 6 9 14 17 22
10 5 6 15 1 0 1 2 1 1 3 5 2 3 2 4 4 8 9 10 10 11 9 5 6 2 7 11 11 7 8 4 3 1 4 2 6 14 10 7 7 9 11 14 19
5 2 5 8 8 1 1 1 1 2 5 1 1 1 2 3 5 8 7 2 3 9 7 9 9 5 1 5 3 10 11 5 2 5 7 5 5 9 16 15 6 6 11 14 15
3 1 10 6 3 3 2 1 2 2 5 2 2 2 1 1 0 4 6 1 2 4 8 7 9 4 4 9 13 6 6 1 2 3 6 9 8 9 15 15 14 7 9 13 16
3 2 12 3 2 1 2 2 5 4 7 3 1 2 2 3 2 2 5 1 2 4 7 6 3 9 16 3 3 13 18 16 9 7 3 5 9 13 15 13 10 7 8 13 14
2 2 7 3 2 2 2 2 4 7 7 7 5 4 4 3 1 2 2 2 9 1 3 7 5 4 5 4 3 6 8 10 7 4 12 12 10 4 7 11 11 11 7 10 12
1 0 4 5 2 2 3 4 2 6 4 5 6 2 3 3 5 2 4 3 9 5 5 5 4 5 6 2 0 7 10 14 16 10 14 12 18 19 14 11 10 8 5 8 11
5 2 1 2 4 4 1 3 3 5 7 10 3 10 4 2 2 4 7 6 3 6 3 3 5 4 6 7 8 12 9 12 13 19 12 18 8 15 15 10 12 5 6 9 12
3 2 1 2 1 1 4 3 3 3 5 4 5 11 7 3 5 4 9 3 3 7 7 5 1 1 4 7 4 8 14 15 18 12 16 14 8 14 15 8 10 11 7 10 14
5 2 3 2 1 1 2 2 5 5 3 7 7 5 5 3 11 13 11 13 11 7 4 5 3 2 6 2 6 7 11 17 16 16 15 9 14 5 6 6 10 11 11 12 14
Wind_Direction
3 359 356 355 354 351 350 349 347 337 327 322 328 331 328 326 307 198 226 224 184 164 148 143 143 148 181 191 210 217 182 131 139 158 133 158 148 135 104 138 131 98 139 142 149
3 1 355 351 348 346 346 343 341 336 318 310 315 323 328 326 281 236 227 194 179 163 150 156 157 158 194 166 168 253 13 170 172 148 154 168 159 146 135 145 137 94 116 139 148
360 0 356 352 345 342 340 337 335 327 313 298 302 314 329 336 257 238 204 186 172 160 153 154 150 173 193 201 170 167 229 180 192 144 148 159 158 154 144 184 186 158 151 154 161
359 357 358 352 347 338 335 333 330 318 304 286 288 303 324 99 202 38 137 170 168 157 151 155 169 198 211 221 161 214 244 228 144 149 147 163 158 183 186 164 179 163 161 159 169
359 356 354 352 348 338 333 329 321 309 290 266 257 264 126 204 257 321 152 166 157 163 166 164 169 193 275 216 161 226 291 166 165 155 161 156 185 181 203 88 152 154 165 173 175
358 355 351 350 347 339 334 327 314 295 268 235 211 197 167 235 298 267 158 161 168 167 174 169 187 216 290 266 231 159 90 91 135 159 156 173 186 183 181 141 145 159 175 180 184
356 354 350 348 345 340 335 323 310 279 241 194 186 144 200 251 313 169 160 171 179 178 182 204 244 305 334 330 341 143 108 95 93 156 149 165 166 222 158 159 155 172 178 186 195
354 352 350 347 345 341 338 333 315 260 205 159 157 134 250 300 206 171 166 162 169 186 104 238 256 303 269 320 62 127 109 167 157 164 146 196 245 209 168 168 172 175 180 188 198
351 350 348 346 346 342 345 13 51 94 132 133 117 180 272 153 190 198 174 175 177 195 248 330 335 242 219 193 158 80 180 204 195 192 161 200 267 182 181 186 178 183 185 185 198
350 347 345 343 345 341 8 86 78 90 107 95 114 232 193 218 169 161 178 157 156 160 218 247 209 240 178 189 192 191 208 206 216 188 204 213 244 183 188 197 191 185 190 194 196
348 346 342 339 342 336 169 260 227 155 220 218 219 254 257 351 135 171 175 166 130 143 175 183 198 201 208 202 180 208 233 243 181 173 233 240 260 216 190 201 199 197 194 202 207
347 344 339 335 339 345 115 192 104 56 296 239 253 271 272 359 96 133 164 169 172 177 151 159 223 217 161 149 164 185 255 260 229 147 215 274 269 253 190 206 205 200 201 207 208
345 343 337 333 340 135 294 175 31 163 232 272 204 222 208 176 207 182 176 170 169 163 192 223 163 170 167 169 188 222 256 283 288 143 212 275 275 224 209 214 213 214 212 210 209
344 340 335 335 120 335 244 171 309 178 293 155 219 205 155 165 205 178 187 172 150 201 178 247 196 227 189 200 228 269 232 255 230 238 275 294 298 265 202 212 214 215 210 211 211
343 334 328 329 290 227 141 318 149 182 165 137 122 135 128 197 124 172 176 139 173 157 178 213 189 203 226 230 192 262 47 120 168 192 295 201 260 244 194 220 227 223 218 215 211
339 330 318 297 213 225 309 326 167 229 209 114 123 155 161 207 136 110 150 80 93 127 212 222 254 210 233 131 188 139 112 100 124 194 262 280 246 251 192 217 228 219 222 220 217
341 336 298 180 85 13 343 170 173 220 354 87 102 146 199 192 176 169 170 177 183 184 207 181 219 266 203 109 126 176 173 221 255 205 259 73 234 266 229 206 226 226 220 218 214
350 27 63 21 303 314 304 138 213 87 343 6 68 153 194 164 201 159 164 194 146 159 165 219 217 217 175 217 195 198 232 224 235 250 335 161 238 248 192 227 244 241 233 215 206
5 20 33 354 67 98 135 189 330 185 331 336 304 160 149 179 187 189 202 207 207 188 219 185 231 235 221 208 202 169 210 268 226 141 266 264 267 279 285 242 215 236 216 209 205
360 28 35 352 18 9 103 136 138 296 323 287 324 349 149 161 178 182 170 156 227 201 219 213 256 209 41 145 77 213 156 185 221 233 249 215 268 260 293 286 260 227 222 216 202
25 71 1 1 1 56 120 94 314 325 4 325 22 315 349 2 121 136 163 136 222 127 187 178 228 191 172 203 206 169 196 109 191 234 260 270 261 242 256 266 275 260 252 217 200
348 86 355 34 40 28 80 335 345 344 12 16 103 45 17 10 33 123 147 107 16 194 160 183 194 219 216 73 270 220 216 216 234 220 240 282 262 267 259 268 267 256 263 221 211
40 318 350 1 84 49 1 67 32 19 25 17 33 21 7 41 166 51 29 69 22 74 172 168 205 200 179 154 166 214 197 225 242 256 236 251 262 264 269 249 258 254 238 215 199
5 335 16 49 36 41 8 18 29 22 64 358 10 35 29 42 26 76 15 359 345 23 22 206 179 242 249 112 78 196 199 207 214 228 243 240 257 275 269 261 259 243 222 198 204
16 66 27 25 48 72 28 8 11 12 10 12 67 35 358 7 31 41 14 334 353 7 12 303 235 205 252 252 250 253 235 195 210 229 218 251 223 263 268 266 283 275 179 180 191
31 358 41 63 313 95 10 55 58 354 349 24 35 346 5 77 48 339 352 348 349 338 351 356 280 287 273 181 206 235 238 223 221 232 240 262 271 259 270 257 266 253 246 193 201
27 26 301 8 49 197 70 75 74 336 69 82 357 339 356 20 315 286 272 269 269 306 308 315 300 272 254 310 297 247 240 218 213 220 236 223 241 275 283 291 276 258 217 219 208